| time (UTC) | temp F | wind direction | speed knots | gust knots | rain 1hr in | rain 24hr in | rain mn in | humidity % | barometer mb |
| 20260505004525 | 45 | 208 | 0.0 | 0.0 | 0.00 | 0.00 | 0.00 | 86 | 1029.4 |
| 20260505003021 | 45 | 208 | 0.0 | 0.0 | 0.00 | 0.00 | 0.00 | 87 | 1029.7 |
| 20260505001520 | 45 | 208 | 0.0 | 0.0 | 0.00 | 0.00 | 0.00 | 85 | 1030.2 |
| 20260505000024 | 46 | 208 | 0.0 | 2.6 | 0.00 | 0.00 | 0.00 | 78 | 1030.4 |
| 20260504234515 | 48 | 205 | 0.0 | 0.0 | 0.00 | 0.00 | 0.00 | 72 | 1029.9 |
| 20260504233014 | 50 | 205 | 0.0 | 0.0 | 0.00 | 0.00 | 0.00 | 58 | 1029.5 |
| 20260504231512 | 51 | 206 | 0.0 | 5.2 | 0.00 | 0.00 | 0.00 | 55 | 1029.0 |
| 20260504230013 | 52 | 198 | 0.0 | 2.6 | 0.00 | 0.00 | 0.00 | 52 | 1029.0 |
| 20260504224509 | 53 | 208 | 0.0 | 2.6 | 0.00 | 0.00 | 0.00 | 49 | 1028.6 |
| 20260504223010 | 54 | 210 | 0.0 | 6.1 | 0.00 | 0.00 | 0.00 | 45 | 1028.3 |
| 20260504221508 | 56 | 194 | 0.9 | 5.2 | 0.00 | 0.00 | 0.00 | 39 | 1027.6 |
| 20260504220009 | 58 | 188 | 1.7 | 6.1 | 0.00 | 0.00 | 0.00 | 37 | 1027.5 |
| 20260504214512 | 60 | 202 | 0.0 | 0.0 | 0.00 | 0.00 | 0.00 | 36 | 1027.3 |
| 20260504213006 | 60 | 202 | 0.0 | 2.6 | 0.00 | 0.00 | 0.00 | 36 | 1027.3 |
| 20260504211507 | 60 | 202 | 0.0 | 1.7 | 0.00 | 0.00 | 0.00 | 36 | 1027.4 |
| 20260504210003 | 59 | 202 | 0.0 | 2.6 | 0.00 | 0.00 | 0.00 | 35 | 1027.7 |
| 20260504204501 | 60 | 169 | 0.9 | 3.5 | 0.00 | 0.00 | 0.00 | 39 | 1027.9 |
| 20260504203106 | 58 | 111 | 0.9 | 6.1 | 0.00 | 0.00 | 0.00 | 40 | 1028.2 |
| 20260504201621 | 57 | 213 | 0.0 | 7.0 | 0.00 | 0.00 | 0.00 | 43 | 1028.7 |
| 20260504200057 | 55 | 200 | 0.9 | 5.2 | 0.00 | 0.00 | 0.00 | 50 | 1028.9 |
| 20260504194602 | 56 | 159 | 0.9 | 9.6 | 0.00 | 0.00 | 0.00 | 44 | 1029.2 |
| 20260504193104 | 57 | 188 | 0.0 | 2.6 | 0.00 | 0.00 | 0.00 | 42 | 1029.0 |
| 20260504191601 | 56 | 207 | 0.0 | 4.3 | 0.00 | 0.00 | 0.00 | 43 | 1028.6 |
| 20260504190114 | 56 | 213 | 0.9 | 5.2 | 0.00 | 0.00 | 0.00 | 41 | 1029.0 |
| 20260504184618 | 55 | 167 | 1.7 | 6.1 | 0.00 | 0.00 | 0.00 | 45 | 1029.2 |
| 20260504183054 | 55 | 36 | 0.9 | 6.1 | 0.00 | 0.00 | 0.00 | 40 | 1029.2 |
| 20260504181553 | 58 | 5 | 0.0 | 5.2 | 0.00 | 0.00 | 0.00 | 32 | 1028.8 |
| 20260504180054 | 59 | 176 | 0.0 | 3.5 | 0.00 | 0.00 | 0.00 | 33 | 1028.4 |
| 20260504174553 | 60 | 212 | 0.0 | 7.0 | 0.00 | 0.00 | 0.00 | 31 | 1028.3 |
| 20260504173051 | 63 | 195 | 0.0 | 6.1 | 0.00 | 0.00 | 0.00 | 29 | 1028.5 |
| 20260504171550 | 62 | 163 | 0.0 | 4.3 | 0.00 | 0.00 | 0.00 | 31 | 1028.8 |
| 20260504120119 | 38 | 199 | 0.0 | 0.0 | 0.00 | 0.00 | 0.00 | 54 | 1030.7 |
| 20260504110103 | 37 | 199 | 0.0 | 0.0 | 0.00 | 0.00 | 0.00 | 55 | 1031.2 |
| 20260504081535 | 40 | 199 | 0.0 | 0.0 | 0.00 | 0.00 | 0.00 | 52 | 1031.9 |
| 20260504050003 | 47 | 199 | 0.0 | 0.0 | 0.00 | 0.00 | 0.00 | 46 | 1033.2 |
| 20260504044504 | 48 | 199 | 0.0 | 0.0 | 0.00 | 0.00 | 0.00 | 44 | 1033.3 |
| 20260504043003 | 49 | 199 | 0.0 | 0.0 | 0.00 | 0.00 | 0.00 | 42 | 1033.5 |
| 20260504041503 | 51 | 199 | 0.0 | 0.0 | 0.00 | 0.00 | 0.00 | 42 | 1033.6 |
| 20260504040002 | 53 | 199 | 0.0 | 0.0 | 0.00 | 0.00 | 0.00 | 36 | 1033.6 |
| 20260504034501 | 53 | 199 | 0.0 | 0.9 | 0.00 | 0.00 | 0.00 | 34 | 1033.7 |
| 20260504033116 | 53 | 199 | 0.0 | 0.9 | 0.00 | 0.00 | 0.00 | 34 | 1033.8 |
| 20260504031605 | 53 | 198 | 0.0 | 0.0 | 0.00 | 0.00 | 0.00 | 34 | 1033.9 |
| 20260504030059 | 54 | 198 | 0.0 | 0.0 | 0.00 | 0.00 | 0.00 | 35 | 1034.0 |
| 20260504024602 | 53 | 196 | 0.0 | 0.9 | 0.00 | 0.00 | 0.00 | 35 | 1033.8 |
| 20260504023059 | 53 | 196 | 0.0 | 0.0 | 0.00 | 0.00 | 0.00 | 37 | 1034.0 |
| 20260504021558 | 54 | 196 | 0.0 | 0.0 | 0.00 | 0.00 | 0.00 | 36 | 1033.7 |
| 20260504020057 | 56 | 196 | 0.0 | 0.0 | 0.00 | 0.00 | 0.00 | 34 | 1033.7 |
| 20260504014558 | 57 | 196 | 0.0 | 0.0 | 0.00 | 0.00 | 0.00 | 33 | 1033.7 |
| 20260504013107 | 57 | 196 | 0.0 | 0.0 | 0.00 | 0.00 | 0.00 | 31 | 1033.4 |
| 20260504011555 | 57 | 196 | 0.0 | 0.0 | 0.00 | 0.00 | 0.00 | 31 | 1033.3 |
| 20260504010056 | 57 | 196 | 0.0 | 0.0 | 0.00 | 0.00 | 0.00 | 30 | 1033.1 |